Hourly Weather Allieres

Today, 2 December, Wednesday

Time Temperature Precipitation Wind Pressure Humidity
00:00 -6°C° 0 mm 2 mps 636 mmHg 95%
01:00 -6°C° 0 mm 2 mps 636 mmHg 95%
02:00 -6°C° 0 mm 2 mps 636 mmHg 94%
03:00 -6°C° 0 mm 2 mps 635 mmHg 94%
04:00 -7°C° 0 mm 2 mps 635 mmHg 94%
05:00 -7°C° 0 mm 2 mps 635 mmHg 94%
06:00 -7°C° 0 mm 2 mps 635 mmHg 93%
07:00 -7°C° 0 mm 2 mps 635 mmHg 92%
08:00 -6°C° 0 mm 2 mps 635 mmHg 90%
09:00 -6°C° 0 mm 2 mps 635 mmHg 89%
10:00 -6°C° 0 mm 2 mps 635 mmHg 88%
11:00 -5°C° 0 mm 2 mps 635 mmHg 87%
12:00 -5°C° 0 mm 2 mps 635 mmHg 87%
13:00 -5°C° 0 mm 2 mps 635 mmHg 88%
14:00 -5°C° 0 mm 2 mps 635 mmHg 90%
15:00 -5°C° 0 mm 2 mps 635 mmHg 92%
16:00 -6°C° 0.1 mm 2 mps 635 mmHg 93%
17:00 -6°C° 0.1 mm 2 mps 635 mmHg 94%
18:00 -6°C° 0.1 mm 2 mps 635 mmHg 96%
19:00 -6°C° 0.1 mm 2 mps 635 mmHg 96%
20:00 -6°C° 0.1 mm 2 mps 635 mmHg 96%
21:00 -6°C° 0.1 mm 2 mps 635 mmHg 96%
22:00 -7°C° 0 mm 2 mps 635 mmHg 95%
23:00 -7°C° 0 mm 2 mps 635 mmHg 95%

Tomorrow, 3 December, Thursday

Time Temperature Precipitation Wind Pressure Humidity
00:00 -7°C° 0 mm 2 mps 635 mmHg 94%
01:00 -7°C° 0 mm 2 mps 634 mmHg 94%
02:00 -7°C° 0 mm 2 mps 634 mmHg 94%
03:00 -7°C° 0 mm 2 mps 634 mmHg 94%
04:00 -8°C° 0 mm 2 mps 633 mmHg 93%
05:00 -7°C° 0 mm 1 mps 633 mmHg 92%
06:00 -8°C° 0 mm 1 mps 633 mmHg 92%
07:00 -6°C° 0 mm 1 mps 633 mmHg 87%
08:00 -4°C° 0 mm 1 mps 633 mmHg 82%
09:00 -3°C° 0 mm 1 mps 633 mmHg 77%
10:00 -2°C° 0 mm 1 mps 633 mmHg 74%
11:00 -1°C° 0 mm 1 mps 633 mmHg 70%
12:00 0°C° 0 mm 1 mps 633 mmHg 66%
13:00 0°C° 0 mm 1 mps 632 mmHg 70%
14:00 -1°C° 0 mm 1 mps 631 mmHg 73%
15:00 -1°C° 0 mm 1 mps 631 mmHg 76%
16:00 -1°C° 0 mm 1 mps 630 mmHg 76%
17:00 -2°C° 0 mm 1 mps 630 mmHg 76%
18:00 -4°C° 0 mm 2 mps 630 mmHg 77%
19:00 -4°C° 0 mm 2 mps 629 mmHg 75%
20:00 -4°C° 0 mm 2 mps 629 mmHg 73%
21:00 -5°C° 0 mm 3 mps 628 mmHg 71%
22:00 -5°C° 0.4 mm 3 mps 628 mmHg 78%
23:00 -5°C° 0.4 mm 3 mps 627 mmHg 84%

Day after tomorrow, 4 December, Friday

Time Temperature Precipitation Wind Pressure Humidity
00:00 -5°C° 0.4 mm 3 mps 627 mmHg 90%
01:00 -5°C° 0.4 mm 3 mps 626 mmHg 91%
02:00 -5°C° 0.4 mm 3 mps 625 mmHg 91%
03:00 -5°C° 0.4 mm 3 mps 624 mmHg 92%
04:00 -5°C° 1 mm 3 mps 624 mmHg 93%
05:00 -4°C° 1 mm 2 mps 623 mmHg 94%
06:00 -4°C° 1 mm 2 mps 623 mmHg 95%
07:00 -4°C° 1 mm 2 mps 623 mmHg 95%
08:00 -3°C° 1 mm 2 mps 623 mmHg 95%
09:00 -3°C° 1 mm 2 mps 623 mmHg 94%
10:00 -3°C° 1.5 mm 2 mps 623 mmHg 95%
11:00 -3°C° 1.5 mm 2 mps 622 mmHg 96%
12:00 -1°C° 1.5 mm 1 mps 622 mmHg 97%
13:00 -2°C° 1.9 mm 1 mps 622 mmHg 97%
14:00 -2°C° 1.9 mm 1 mps 622 mmHg 97%
15:00 -2°C° 1.9 mm 1 mps 622 mmHg 98%
16:00 -2°C° 2.2 mm 1 mps 622 mmHg 98%
17:00 -2°C° 2.2 mm 1 mps 622 mmHg 98%
18:00 -2°C° 2.2 mm 1 mps 622 mmHg 98%
19:00 -2°C° 1.4 mm 1 mps 623 mmHg 98%
20:00 -3°C° 1.4 mm 1 mps 623 mmHg 98%
21:00 -3°C° 1.4 mm 1 mps 623 mmHg 98%
22:00 -3°C° 0.8 mm 1 mps 623 mmHg 97%
23:00 -5°C° 0.8 mm 0 mps 623 mmHg 97%

5 December, Saturday

Time Temperature Precipitation Wind Pressure Humidity
00:00 -5°C° 0.8 mm 0 mps 623 mmHg 97%
01:00 -5°C° 0.3 mm 0 mps 623 mmHg 96%
02:00 -6°C° 0.3 mm 0 mps 622 mmHg 96%
03:00 -6°C° 0.3 mm 0 mps 622 mmHg 95%
04:00 -6°C° 0 mm 0 mps 622 mmHg 95%
05:00 -7°C° 0 mm 0 mps 622 mmHg 95%
06:00 -7°C° 0 mm 0 mps 622 mmHg 95%
07:00 -6°C° 0 mm 0 mps 623 mmHg 95%
08:00 -5°C° 0 mm 0 mps 623 mmHg 94%
09:00 -4°C° 0 mm 0 mps 624 mmHg 93%
10:00 -4°C° 0 mm 0 mps 624 mmHg 91%
11:00 -3°C° 0 mm 0 mps 624 mmHg 89%
12:00 -2°C° 0 mm 0 mps 625 mmHg 87%
13:00 -3°C° 0 mm 0 mps 624 mmHg 89%
14:00 -3°C° 0 mm 0 mps 624 mmHg 90%
15:00 -4°C° 0 mm 0 mps 624 mmHg 91%
16:00 -5°C° 0 mm 0 mps 624 mmHg 90%
17:00 -7°C° 0 mm 1 mps 624 mmHg 90%
18:00 -8°C° 0 mm 1 mps 624 mmHg 89%
19:00 -9°C° 0 mm 1 mps 624 mmHg 87%
20:00 -10°C° 0 mm 2 mps 624 mmHg 86%
21:00 -10°C° 0 mm 2 mps 624 mmHg 85%
22:00 -10°C° 0 mm 2 mps 624 mmHg 83%
23:00 -10°C° 0 mm 2 mps 625 mmHg 82%

6 December, Sunday

Time Temperature Precipitation Wind Pressure Humidity
00:00 -10°C° 0 mm 2 mps 625 mmHg 81%
01:00 -10°C° 0 mm 2 mps 625 mmHg 81%
02:00 -10°C° 0 mm 2 mps 625 mmHg 81%
03:00 -10°C° 0 mm 2 mps 624 mmHg 81%
04:00 -9°C° 0 mm 2 mps 625 mmHg 82%
05:00 -9°C° 0 mm 2 mps 625 mmHg 84%
06:00 -9°C° 0 mm 3 mps 625 mmHg 85%
07:00 -8°C° 0.3 mm 3 mps 626 mmHg 87%
08:00 -7°C° 0.3 mm 3 mps 627 mmHg 88%
09:00 -6°C° 0.3 mm 3 mps 627 mmHg 90%
10:00 -6°C° 0.3 mm 3 mps 628 mmHg 90%
11:00 -5°C° 0.3 mm 3 mps 628 mmHg 90%
12:00 -4°C° 0.3 mm 3 mps 628 mmHg 89%
13:00 -4°C° 0.1 mm 3 mps 628 mmHg 89%
14:00 -5°C° 0.1 mm 3 mps 628 mmHg 89%
15:00 -4°C° 0.1 mm 2 mps 628 mmHg 89%
16:00 -4°C° 0.1 mm 2 mps 629 mmHg 90%
17:00 -5°C° 0.1 mm 2 mps 629 mmHg 91%
18:00 -5°C° 0.1 mm 2 mps 629 mmHg 93%
19:00 -6°C° 0.1 mm 2 mps 629 mmHg 93%
20:00 -4°C° 0.1 mm 1 mps 630 mmHg 93%
21:00 -4°C° 0.1 mm 1 mps 630 mmHg 93%
22:00 -4°C° 0.1 mm 1 mps 630 mmHg 93%
23:00 -4°C° 0.1 mm 1 mps 630 mmHg 93%

7 December, Monday

Time Temperature Precipitation Wind Pressure Humidity
00:00 -4°C° 0.1 mm 1 mps 631 mmHg 94%
01:00 -6°C° 0 mm 1 mps 631 mmHg 93%
02:00 -6°C° 0 mm 1 mps 631 mmHg 93%
03:00 -6°C° 0 mm 1 mps 631 mmHg 92%
04:00 -6°C° 0 mm 1 mps 631 mmHg 92%
05:00 -6°C° 0 mm 1 mps 631 mmHg 92%
06:00 -6°C° 0 mm 1 mps 632 mmHg 91%
07:00 -6°C° 0 mm 1 mps 632 mmHg 91%
08:00 -4°C° 0 mm 1 mps 633 mmHg 90%
09:00 -3°C° 0 mm 1 mps 634 mmHg 89%
10:00 -2°C° 0 mm 1 mps 634 mmHg 89%
11:00 -1°C° 0 mm 1 mps 634 mmHg 89%
12:00 -1°C° 0 mm 0 mps 635 mmHg 89%
13:00 -2°C° 0 mm 0 mps 635 mmHg 90%
14:00 -2°C° 0 mm 0 mps 635 mmHg 92%
15:00 -3°C° 0 mm 0 mps 635 mmHg 93%
16:00 -3°C° 0 mm 1 mps 635 mmHg 92%
17:00 -4°C° 0 mm 1 mps 635 mmHg 92%
18:00 -6°C° 0 mm 1 mps 635 mmHg 91%
19:00 -6°C° 0 mm 1 mps 635 mmHg 89%
20:00 -8°C° 0 mm 2 mps 635 mmHg 87%
21:00 -8°C° 0 mm 2 mps 635 mmHg 85%
22:00 -8°C° 0 mm 2 mps 635 mmHg 83%
23:00 -9°C° 0 mm 2 mps 635 mmHg 81%
Show more